STARLINK-4554, 53626

Orbit data source: Space-Track

STARLINK-4554, 53626 is a payload satellite owned by SpaceX/Seattle (US) in LEO that was launched on Sun, 28 Aug 2022 UTC via an FALCON 9 launch vehicle from the Air Force Eastern Test Range (AFETR). Payload-class satellites include a variety of spacecraft equipped with specific instruments for various scientific and technological missions. These include communications satellites like Starlink; space stations such as the ISS; scientific satellites like the Hubble; Earth observation satellites from companies like Planet Labs, Umbra, and HawkEye 360; GPS; miniature CubeSats for education and research; and military/defense satellites.

Loading next visibility...
Identifier
53626, 2022-104AQ
Orbit
LEO
Country
Flag of USUS
Related business
Manufacturer
SpaceX/Seattle
Mission
Operational Commercial Communications
Bus & Motor
STARLINK, Unknown motor
Mass
300 kg wet, ~290 kg dry
Launch date (UTC)
2022-08-28 (3 years ago)
Launch vehicle
FALCON 9
Launch site
Air Force Eastern Test Range (AFETR)
Object type
Payload
Rocket body
Debris
Shape & HBR
Box + 1 Pan, 10.1 m
Radar Cross Section
13.562 m², Large (>1 m²)

Expand to show TLE details & history
Last TLE update: 12 hours ago

TLE from 12 hours ago
0 STARLINK-4554
1 53626U 22104AQ  26036.91803281  .00000415  00000-0  44127-4 0  9992
2 53626  53.2190  16.3898 0000640 213.4791 146.6161 15.08828471190960
Epoch: 2026-02-05T22:01Z
TLE epoch observation values (Epoch: 2026-02-05T22:01:58.034Z)
Latitude
-0.00002°
Longitude
-90.1654°
Altitude
541.046 km
Speed
7.593 km/s
True Right ascension
01h 05m 33s
True Declination
0° 00' 00"
Sunlit
Object was in daylight at epoch
Visualization orbit readout
Latitude
Unknown
Longitude
Unknown
Altitude
Unknown
Speed
Unknown
Apparent Right ascension
Unknown
Apparent Declination
Unknown
Sunlit
N/A
Visualization observer readout
Local Sidereal Time
12:07:02
Azimuth
Unknown
Elevation
Unknown
Doppler factor
Unknown
Orbital elements
Apogee altitude
540.466 km
Perigee altitude
539.581 km
Semi-major axis
6,918.16 km
Eccentricity
0.00006
Inclination
53.219°
RAAN
16.3898°
Arg. of periapsis
213.4791°
True anomaly
146.62014°
Mean anomaly
146.6161°
Eccentric anomaly
146.61812°
Mean motion
3.77187 °/min
Orbital period
95.44 mins
BSTAR
0.000044127
Loading maneuver chart data...
Computing Atmospheric mass density...
Loading historical data...
Loading historical data...
Loading historical data...
Loading historical data...
Loading historical data...
Loading historical data...
Loading historical data...

Documentation

Showing up to 5 results
|